GCXOGCLA

Guest
Details From GCXO - Tenerife Norte - Los Rodeos
To GCLA - La Palma
Flight Number -
Tags decoded
Created
Modified
Stats Distance 79 nm / 145 km
Max Altitude 0 ft / 0 m
Waypoints 3
Social Downloads 3
Likes 0
Share VATSIM

Download

Looking for another format? Having issues loading an existing format? Contact us
Advertisement - Login to hide

Notes

Requested: GCXO ARACO GANTA GCLA

Route

GCXO ARACO GCLA

ID Type Via Altitude Latitude Longitude Leg Dist Tot Dist Heading (true) Name
O GCXO APT - 0 ft / 0 m 28.48266˚ -16.34154˚ - 0 nm - Tenerife Norte - Los Rodeos
ARACO FIX - 0 ft / 0 m 28.43252˚ -17.45233˚ 58 nm 58 nm 267° / 267° -
O GCLA APT - 0 ft / 0 m 28.62648˚ -17.75561˚ 19 nm 78 nm 306° / 306° La Palma

Altitude Profile

Advertisement - Login to hide

GCXO

Details ICAO GCXO (TFN)
Name Tenerife Norte - Los Rodeos
Region Canary Islands
Timezone Atlantic/Canary (UTC+0.0)
Stats Elevation 2,076 ft / 633 m (AMSL)
Location 28.482656° -16.341541°
Runways 1
Magnetic Variation 5.003° W

METAR

GCXO 130130Z AUTO 35012KT 280V030 9000 3600NW -RA BR SCT014/// BKN020/// BKN030/// 12/10 Q1024

Decode

TAF

TAF AMD GCXO 122225Z 1222/1321 34015KT 9999 BKN012 TX16/1314Z TN11/1306Z TEMPO 1222/1310 34015G30KT BECMG 1310/1312 04015KT PROB30 TEMPO 1222/1318 4000 DZRA BCFG BKN007

Decode

Departure Runways

ID Width Length Bearing (true) Bearing (mag) Surface Threshold Offset Overrun Length
12 148 ft / 45 m 11,165 ft / 3,403 m 110.67° 115.67° Asphalt 0 ft / 0 m 197 ft / 60 m
30 148 ft / 45 m 11,165 ft / 3,403 m 290.69° 295.69° Asphalt 0 ft / 0 m 197 ft / 60 m

GCLA

Details ICAO GCLA (SPC)
Name La Palma
Region Canary Islands
Timezone Atlantic/Canary (UTC+0.0)
Stats Elevation 107 ft / 33 m (AMSL)
Location 28.626480° -17.755613°
Runways 1
Magnetic Variation 5.523° W

METAR

GCLA 130130Z AUTO 36022KT 9999 FEW034/// SCT055/// 18/12 Q1023

Decode

TAF

TAF GCLA 122000Z 1221/1321 02020KT 9999 BKN030 TX20/1314Z TN17/1306Z TEMPO 1221/1321 02020G30KT PROB40 TEMPO 1221/1315 4000 RA

Decode

Destination Runways

ID Width Length Bearing (true) Bearing (mag) Surface Threshold Offset Overrun Length
01 148 ft / 45 m 7,240 ft / 2,207 m 359.02° 4.54° Asphalt 0 ft / 0 m 279 ft / 85 m
19 148 ft / 45 m 7,240 ft / 2,207 m 179.02° 184.54° Asphalt 0 ft / 0 m 236 ft / 72 m

Popular Alternatives